カタログに戻る

FENGYUN 1C DEB

運用中PO
NORAD 30656·DEBRIS·🇨🇳 China

打ち上げ May 10, 1999 から Taiyuan Satellite Launch Center

Loading…

次のパス (今後24時間)

TLE

最新Source: Space-Track

元期: Sep 14, 2026, 05:15 UTC

1 30656U 99025APN 26257.21911733  .00003833  00000-0  10120-2 0  9997
2 30656  99.0190  94.5372 0030725 349.4292  10.6250 14.49277469 10659

AllMySatでFENGYUN 1C DEBをリアルタイム追跡

Download on the App Store